This demonstration page uses our WeatherBlox Daily Observations layout. Learn more.

Left ArrowRight Arrow

39.01783, -85.05884

Hourly Observations for July 3, 2021

Temp ( °F °C ) Dew Point ( °F °C ) Humidity (%) Winds ( mph kmh ) Pressure ( in mb ) Visibility ( mi km ) Precip ( " mm )
12:52 am 00:52 Partly Cloudy 59 15 54 12.2 83 83 Calm 29.97 1015 10 16 0.00 0.00
1:52 am 01:52 Mostly Clear 60 15.6 53 11.7 78 78 W 3 6 29.97 1015 10 16 0.00 0.00
2:52 am 02:52 Mostly Clear 62 16.7 54 12.2 75 75 NNW 6 9 29.98 1015 10 16 0.00 0.00
3:52 am 03:52 Mostly Clear 61 16.1 54 12.2 78 78 NNW 6 9 29.98 1015 10 16 0.00 0.00
4:52 am 04:52 Mostly Clear 60 15.6 54 12.2 80 80 N 6 9 29.99 1016 10 16 0.00 0.00
5:52 am 05:52 Mostly Clear 60 15.6 54 12.2 80 80 NNW 5 7 29.99 1016 10 16 0.00 0.00
6:52 am 06:52 Partly Cloudy 59 15 54 12.2 83 83 N 5 7 30.01 1016 10 16 0.00 0.00
7:52 am 07:52 Sunny 61 16.1 55 12.8 81 81 NNW 3 6 30.02 1017 10 16 0.00 0.00
8:52 am 08:52 Partly Cloudy 64 17.8 56 13.3 75 75 NNW 5 7 30.02 1017 10 16 0.00 0.00
9:52 am 09:52 Sunny 69 20.6 57 13.9 66 66 NNE 3 6 30.03 1017 10 16 0.00 0.00
10:52 am 10:52 Partly Cloudy 72 22.2 56 13.3 57 57 NNW 6 9 30.02 1017 10 16 0.00 0.00
11:52 am 11:52 Partly Cloudy 75 23.9 53 11.7 46 46 NW 8 13 30.02 1017 10 16 0.00 0.00
12:52 pm 12:52 Partly Cloudy 76 24.4 55 12.8 48 48 NNW 10 17 30.00 1016 10 16 0.00 0.00
1:52 pm 13:52 Partly Cloudy 77 25 54 12.2 45 45 W 9 15 29.98 1015 10 16 0.00 0.00
2:52 pm 14:52 Sunny 79 26.1 54 12.2 42 42 WNW 12 19 29.97 1015 10 16 0.00 0.00
3:52 pm 15:52 Partly Cloudy 79 26.1 55 12.8 44 44 WNW 12 19 29.96 1015 10 16 0.00 0.00
4:52 pm 16:52 Mostly Sunny 79 26.1 56 13.3 45 45 W 14 22 29.95 1014 10 16 0.00 0.00
5:52 pm 17:52 Mostly Sunny 79 26.1 57 13.9 47 47 W 13 20 29.94 1014 10 16 0.00 0.00
6:52 pm 18:52 Sunny 77 25 55 12.8 47 47 W 13 20 29.94 1014 10 16 0.00 0.00
7:52 pm 19:52 Mostly Sunny 75 23.9 55 12.8 50 50 W 8 13 29.95 1014 10 16 0.00 0.00
8:52 pm 20:52 Partly Cloudy 71 21.7 56 13.3 59 59 W 7 11 29.96 1014 10 16 0.00 0.00
9:52 pm 21:52 Mostly Cloudy 70 21.1 55 12.8 59 59 W 7 11 29.96 1015 10 16 0.00 0.00
10:52 pm 22:52 Mostly Clear 69 20.6 53 11.7 57 57 W 5 7 29.96 1015 10 16 0.00 0.00
11:52 pm 23:52 Mostly Clear 69 20.6 53 11.7 57 57 WSW 5 7 29.97 1015 10 16 0.00 0.00

Powered by AerisWeather